| time (UTC) | temp C | wind direction | speed KPH | gust KPH | rain 1hr cm | rain 24hr cm | rain mn cm | humidity % | barometer mb |
| 20260831020024 | 32 | 144 | 9.7 | 11.3 | 0.00 | 0.00 | 0.00 | 36 | 1013.4 |
| 20260831015524 | 32 | 131 | 9.7 | 11.3 | 0.00 | 0.00 | 0.00 | 36 | 1013.3 |
| 20260831014523 | 32 | 132 | 8.0 | 11.3 | 0.00 | 0.00 | 0.00 | 35 | 1013.2 |
| 20260831014024 | 32 | 132 | 9.7 | 11.3 | 0.00 | 0.00 | 0.00 | 35 | 1013.2 |
| 20260831013524 | 32 | 129 | 11.3 | 11.3 | 0.00 | 0.00 | 0.00 | 34 | 1013.2 |
| 20260831013024 | 32 | 142 | 9.7 | 11.3 | 0.00 | 0.00 | 0.00 | 33 | 1013.1 |
| 20260831012523 | 33 | 144 | 11.3 | 11.3 | 0.00 | 0.00 | 0.00 | 33 | 1013.1 |
| 20260831011524 | 33 | 135 | 8.0 | 12.9 | 0.00 | 0.00 | 0.00 | 33 | 1013.1 |
| 20260831011023 | 33 | 139 | 11.3 | 12.9 | 0.00 | 0.00 | 0.00 | 32 | 1013.0 |
| 20260831010523 | 33 | 144 | 9.7 | 11.3 | 0.00 | 0.00 | 0.00 | 32 | 1013.0 |
| 20260831010023 | 33 | 140 | 8.0 | 14.5 | 0.00 | 0.00 | 0.00 | 32 | 1013.0 |
| 20260831005523 | 34 | 144 | 9.7 | 14.5 | 0.00 | 0.00 | 0.00 | 32 | 1013.0 |
| 20260831005023 | 34 | 168 | 8.0 | 14.5 | 0.00 | 0.00 | 0.00 | 31 | 1013.0 |
| 20260831004523 | 35 | 164 | 11.3 | 16.1 | 0.00 | 0.00 | 0.00 | 31 | 1013.0 |
| 20260831004022 | 35 | 165 | 9.7 | 16.1 | 0.00 | 0.00 | 0.00 | 30 | 1013.0 |
| 20260831003523 | 35 | 168 | 11.3 | 19.3 | 0.00 | 0.00 | 0.00 | 30 | 1013.0 |
| 20260831003022 | 35 | 149 | 12.9 | 24.1 | 0.00 | 0.00 | 0.00 | 29 | 1012.9 |
| 20260831002523 | 35 | 151 | 12.9 | 24.1 | 0.00 | 0.00 | 0.00 | 29 | 1012.9 |
| 20260831002022 | 35 | 163 | 17.7 | 22.5 | 0.00 | 0.00 | 0.00 | 29 | 1012.9 |
| 20260831001522 | 35 | 169 | 19.3 | 22.5 | 0.00 | 0.00 | 0.00 | 29 | 1012.9 |
| 20260831001022 | 36 | 162 | 11.3 | 29.0 | 0.00 | 0.00 | 0.00 | 29 | 1013.0 |
| 20260831000522 | 36 | 190 | 14.5 | 29.0 | 0.00 | 0.00 | 0.00 | 29 | 1012.9 |
| 20260831000022 | 36 | 168 | 14.5 | 22.5 | 0.00 | 0.00 | 0.00 | 29 | 1012.9 |
| 20260830235522 | 36 | 156 | 17.7 | 22.5 | 0.00 | 0.00 | 0.00 | 29 | 1012.9 |
| 20260830235022 | 36 | 130 | 17.7 | 22.5 | 0.00 | 0.00 | 0.00 | 28 | 1012.9 |
| 20260830234521 | 36 | 181 | 11.3 | 20.9 | 0.00 | 0.00 | 0.00 | 28 | 1013.0 |
| 20260830234021 | 36 | 172 | 17.7 | 24.1 | 0.00 | 0.00 | 0.00 | 28 | 1012.9 |
| 20260830233522 | 36 | 134 | 16.1 | 27.4 | 0.00 | 0.00 | 0.00 | 28 | 1012.9 |
| 20260830233021 | 36 | 158 | 16.1 | 27.4 | 0.00 | 0.00 | 0.00 | 28 | 1012.9 |
| 20260830232521 | 36 | 202 | 12.9 | 25.7 | 0.00 | 0.00 | 0.00 | 28 | 1012.9 |
| 20260830232021 | 36 | 145 | 16.1 | 24.1 | 0.00 | 0.00 | 0.00 | 28 | 1012.8 |
| 20260830231021 | 37 | 171 | 24.1 | 24.1 | 0.00 | 0.00 | 0.00 | 26 | 1012.9 |
| 20260830230521 | 37 | 201 | 6.4 | 20.9 | 0.00 | 0.00 | 0.00 | 27 | 1013.0 |
| 20260830225521 | 37 | 190 | 14.5 | 25.7 | 0.00 | 0.00 | 0.00 | 26 | 1013.1 |
| 20260830225021 | 37 | 175 | 19.3 | 27.4 | 0.00 | 0.00 | 0.00 | 26 | 1013.1 |
| 20260830224521 | 37 | 199 | 14.5 | 27.4 | 0.00 | 0.00 | 0.00 | 26 | 1013.1 |
| 20260830224022 | 37 | 140 | 20.9 | 22.5 | 0.00 | 0.00 | 0.00 | 26 | 1013.0 |
| 20260830223523 | 37 | 194 | 12.9 | 22.5 | 0.00 | 0.00 | 0.00 | 27 | 1013.1 |
| 20260830222523 | 36 | 198 | 17.7 | 19.3 | 0.00 | 0.00 | 0.00 | 28 | 1013.0 |
| 20260830221520 | 37 | 149 | 17.7 | 27.4 | 0.00 | 0.00 | 0.00 | 28 | 1013.1 |
| 20260830221021 | 36 | 171 | 17.7 | 22.5 | 0.00 | 0.00 | 0.00 | 28 | 1013.1 |
| 20260830220520 | 37 | 145 | 14.5 | 25.7 | 0.00 | 0.00 | 0.00 | 27 | 1013.1 |
| 20260830220020 | 36 | 117 | 20.9 | 25.7 | 0.00 | 0.00 | 0.00 | 27 | 1013.1 |
| 20260830215520 | 37 | 187 | 9.7 | 27.4 | 0.00 | 0.00 | 0.00 | 27 | 1013.2 |
| 20260830215021 | 36 | 182 | 20.9 | 27.4 | 0.00 | 0.00 | 0.00 | 28 | 1013.2 |
| 20260830214520 | 36 | 183 | 8.0 | 24.1 | 0.00 | 0.00 | 0.00 | 29 | 1013.2 |
| 20260830213020 | 37 | 160 | 27.4 | 33.8 | 0.00 | 0.00 | 0.00 | 27 | 1013.1 |
| 20260830212520 | 37 | 151 | 20.9 | 33.8 | 0.00 | 0.00 | 0.00 | 28 | 1013.2 |
| 20260830212020 | 37 | 184 | 12.9 | 25.7 | 0.00 | 0.00 | 0.00 | 28 | 1013.3 |
| 20260830211519 | 37 | 204 | 19.3 | 30.6 | 0.00 | 0.00 | 0.00 | 28 | 1013.4 |
| 20260830210519 | 36 | 162 | 17.7 | 20.9 | 0.00 | 0.00 | 0.00 | 28 | 1013.5 |
| 20260830205520 | 37 | 158 | 8.0 | 24.1 | 0.00 | 0.00 | 0.00 | 28 | 1013.6 |
| 20260830205019 | 37 | 173 | 20.9 | 25.7 | 0.00 | 0.00 | 0.00 | 28 | 1013.6 |
| 20260830204519 | 36 | 111 | 16.1 | 25.7 | 0.00 | 0.00 | 0.00 | 29 | 1013.6 |
| 20260830204019 | 37 | 180 | 20.9 | 22.5 | 0.00 | 0.00 | 0.00 | 29 | 1013.7 |
| 20260830203520 | 36 | 189 | 8.0 | 29.0 | 0.00 | 0.00 | 0.00 | 29 | 1013.9 |
| 20260830203019 | 37 | 179 | 16.1 | 29.0 | 0.00 | 0.00 | 0.00 | 29 | 1013.9 |
| 20260830202019 | 37 | 225 | 14.5 | 22.5 | 0.00 | 0.00 | 0.00 | 29 | 1014.1 |
| 20260830201019 | 36 | 189 | 22.5 | 32.2 | 0.00 | 0.00 | 0.00 | 29 | 1014.2 |
| 20260830200519 | 37 | 189 | 12.9 | 25.7 | 0.00 | 0.00 | 0.00 | 30 | 1014.3 |
| 20260830200019 | 36 | 139 | 19.3 | 27.4 | 0.00 | 0.00 | 0.00 | 29 | 1014.3 |
| 20260830195520 | 36 | 144 | 20.9 | 27.4 | 0.00 | 0.00 | 0.00 | 30 | 1014.3 |
| 20260830194518 | 36 | 132 | 12.9 | 32.2 | 0.00 | 0.00 | 0.00 | 30 | 1014.6 |
| 20260830194018 | 37 | 146 | 24.1 | 32.2 | 0.00 | 0.00 | 0.00 | 30 | 1014.6 |
| 20260830193519 | 36 | 225 | 27.4 | 32.2 | 0.00 | 0.00 | 0.00 | 31 | 1014.6 |
| 20260830193019 | 36 | 202 | 12.9 | 29.0 | 0.00 | 0.00 | 0.00 | 31 | 1014.7 |
| 20260830192519 | 36 | 197 | 24.1 | 30.6 | 0.00 | 0.00 | 0.00 | 32 | 1014.7 |
| 20260830192018 | 36 | 199 | 20.9 | 30.6 | 0.00 | 0.00 | 0.00 | 32 | 1014.8 |
| 20260830191019 | 36 | 166 | 20.9 | 38.6 | 0.00 | 0.00 | 0.00 | 31 | 1014.8 |
| 20260830190018 | 36 | 208 | 24.1 | 32.2 | 0.00 | 0.00 | 0.00 | 34 | 1014.9 |
| 20260830185018 | 36 | 196 | 20.9 | 35.4 | 0.00 | 0.00 | 0.00 | 33 | 1015.0 |
| 20260830184518 | 35 | 132 | 14.5 | 35.4 | 0.00 | 0.00 | 0.00 | 34 | 1015.1 |
| 20260830184018 | 35 | 177 | 12.9 | 33.8 | 0.00 | 0.00 | 0.00 | 34 | 1015.0 |
| 20260830183018 | 35 | 196 | 20.9 | 35.4 | 0.00 | 0.00 | 0.00 | 33 | 1015.3 |
| 20260830182518 | 36 | 201 | 29.0 | 33.8 | 0.00 | 0.00 | 0.00 | 33 | 1015.4 |
| 20260830182048 | 36 | 195 | 20.9 | 35.4 | 0.00 | 0.00 | 0.00 | 33 | 1015.4 |
| 20260830181018 | 36 | 163 | 24.1 | 35.4 | 0.00 | 0.00 | 0.00 | 34 | 1015.6 |
| 20260830180517 | 36 | 186 | 20.9 | 35.4 | 0.00 | 0.00 | 0.00 | 36 | 1015.6 |
| 20260830175518 | 35 | 222 | 22.5 | 35.4 | 0.00 | 0.00 | 0.00 | 36 | 1015.8 |
| 20260830175018 | 35 | 200 | 30.6 | 35.4 | 0.00 | 0.00 | 0.00 | 36 | 1015.8 |
| 20260830174517 | 35 | 182 | 25.7 | 32.2 | 0.00 | 0.00 | 0.00 | 36 | 1015.9 |
| 20260830174017 | 35 | 211 | 30.6 | 32.2 | 0.00 | 0.00 | 0.00 | 36 | 1015.9 |
| 20260830173018 | 35 | 169 | 17.7 | 33.8 | 0.00 | 0.00 | 0.00 | 37 | 1016.1 |
| 20260830172518 | 35 | 176 | 29.0 | 38.6 | 0.00 | 0.00 | 0.00 | 37 | 1016.1 |
| 20260830172017 | 35 | 203 | 19.3 | 38.6 | 0.00 | 0.00 | 0.00 | 38 | 1016.3 |
| 20260830171517 | 35 | 183 | 25.7 | 29.0 | 0.00 | 0.00 | 0.00 | 38 | 1016.3 |
| 20260830171018 | 35 | 182 | 16.1 | 29.0 | 0.00 | 0.00 | 0.00 | 39 | 1016.4 |
| 20260830170517 | 35 | 220 | 20.9 | 29.0 | 0.00 | 0.00 | 0.00 | 38 | 1016.5 |
| 20260830170017 | 35 | 189 | 24.1 | 29.0 | 0.00 | 0.00 | 0.00 | 38 | 1016.5 |
| 20260830165517 | 35 | 217 | 29.0 | 29.0 | 0.00 | 0.00 | 0.00 | 39 | 1016.6 |
| 20260830165017 | 35 | 218 | 22.5 | 29.0 | 0.00 | 0.00 | 0.00 | 39 | 1016.6 |
| 20260830164547 | 35 | 181 | 29.0 | 30.6 | 0.00 | 0.00 | 0.00 | 39 | 1016.5 |
| 20260830164017 | 34 | 233 | 20.9 | 30.6 | 0.00 | 0.00 | 0.00 | 41 | 1016.7 |
| 20260830163517 | 34 | 204 | 30.6 | 30.6 | 0.00 | 0.00 | 0.00 | 40 | 1016.7 |
| 20260830163017 | 35 | 198 | 19.3 | 29.0 | 0.00 | 0.00 | 0.00 | 40 | 1016.7 |
| 20260830162517 | 33 | 199 | 14.5 | 29.0 | 0.00 | 0.00 | 0.00 | 43 | 1016.8 |
| 20260830162018 | 34 | 225 | 11.3 | 27.4 | 0.00 | 0.00 | 0.00 | 42 | 1016.8 |
| 20260830161517 | 34 | 200 | 17.7 | 20.9 | 0.00 | 0.00 | 0.00 | 43 | 1016.8 |
| 20260830161017 | 33 | 218 | 17.7 | 29.0 | 0.00 | 0.00 | 0.00 | 44 | 1016.8 |
| 20260830160516 | 33 | 216 | 24.1 | 29.0 | 0.00 | 0.00 | 0.00 | 45 | 1016.8 |
| 20260830160016 | 33 | 227 | 27.4 | 30.6 | 0.00 | 0.00 | 0.00 | 45 | 1016.9 |
| 20260830155017 | 33 | 209 | 24.1 | 24.1 | 0.00 | 0.00 | 0.00 | 47 | 1016.9 |
| 20260830154517 | 33 | 180 | 11.3 | 24.1 | 0.00 | 0.00 | 0.00 | 48 | 1016.9 |
| 20260830154016 | 33 | 207 | 19.3 | 24.1 | 0.00 | 0.00 | 0.00 | 49 | 1016.9 |
| 20260830152016 | 32 | 225 | 22.5 | 27.4 | 0.00 | 0.00 | 0.00 | 51 | 1016.9 |
| 20260830151516 | 32 | 203 | 22.5 | 25.7 | 0.00 | 0.00 | 0.00 | 51 | 1016.9 |
| 20260830151016 | 32 | 203 | 22.5 | 22.5 | 0.00 | 0.00 | 0.00 | 51 | 1016.9 |
| 20260830150516 | 32 | 225 | 20.9 | 22.5 | 0.00 | 0.00 | 0.00 | 52 | 1016.9 |
| 20260830150016 | 31 | 198 | 17.7 | 22.5 | 0.00 | 0.00 | 0.00 | 53 | 1017.0 |
| 20260830145516 | 31 | 211 | 9.7 | 24.1 | 0.00 | 0.00 | 0.00 | 54 | 1017.0 |
| 20260830145016 | 31 | 206 | 20.9 | 24.1 | 0.00 | 0.00 | 0.00 | 54 | 1017.0 |
| 20260830144516 | 31 | 209 | 24.1 | 24.1 | 0.00 | 0.00 | 0.00 | 54 | 1017.0 |
| 20260830144015 | 30 | 226 | 12.9 | 24.1 | 0.00 | 0.00 | 0.00 | 56 | 1017.0 |
| 20260830143017 | 30 | 212 | 25.7 | 25.7 | 0.00 | 0.00 | 0.00 | 57 | 1016.9 |
| 20260830141515 | 30 | 203 | 12.9 | 25.7 | 0.00 | 0.00 | 0.00 | 59 | 1016.9 |
| 20260830141015 | 30 | 210 | 14.5 | 20.9 | 0.00 | 0.00 | 0.00 | 59 | 1016.8 |
| 20260830140515 | 29 | 226 | 19.3 | 19.3 | 0.00 | 0.00 | 0.00 | 60 | 1016.9 |
| 20260830140015 | 29 | 201 | 12.9 | 17.7 | 0.00 | 0.00 | 0.00 | 61 | 1017.0 |
| 20260830135515 | 28 | 229 | 11.3 | 19.3 | 0.00 | 0.00 | 0.00 | 61 | 1017.0 |
| 20260830135015 | 28 | 217 | 14.5 | 19.3 | 0.00 | 0.00 | 0.00 | 62 | 1017.0 |
| 20260830134515 | 28 | 214 | 16.1 | 17.7 | 0.00 | 0.00 | 0.00 | 63 | 1017.0 |
| 20260830134015 | 28 | 205 | 12.9 | 12.9 | 0.00 | 0.00 | 0.00 | 64 | 1016.9 |
| 20260830133515 | 27 | 197 | 9.7 | 12.9 | 0.00 | 0.00 | 0.00 | 65 | 1016.9 |
| 20260830133014 | 27 | 192 | 11.3 | 12.9 | 0.00 | 0.00 | 0.00 | 66 | 1016.9 |
| 20260830131014 | 26 | 179 | 9.7 | 11.3 | 0.00 | 0.00 | 0.00 | 69 | 1016.8 |
| 20260830130514 | 26 | 208 | 6.4 | 11.3 | 0.00 | 0.00 | 0.00 | 69 | 1016.7 |
| 20260830130014 | 26 | 179 | 6.4 | 11.3 | 0.00 | 0.00 | 0.00 | 69 | 1016.7 |
| 20260830125514 | 25 | 156 | 8.0 | 11.3 | 0.00 | 0.00 | 0.00 | 70 | 1016.6 |
| 20260830125014 | 25 | 151 | 8.0 | 11.3 | 0.00 | 0.00 | 0.00 | 70 | 1016.5 |
| 20260830124514 | 25 | 175 | 8.0 | 11.3 | 0.00 | 0.00 | 0.00 | 71 | 1016.4 |
| 20260830124014 | 25 | 177 | 11.3 | 11.3 | 0.00 | 0.00 | 0.00 | 71 | 1016.4 |
| 20260830123514 | 25 | 166 | 9.7 | 11.3 | 0.00 | 0.00 | 0.00 | 72 | 1016.3 |
| 20260830123014 | 25 | 141 | 8.0 | 12.9 | 0.00 | 0.00 | 0.00 | 72 | 1016.3 |
| 20260830122013 | 25 | 151 | 11.3 | 12.9 | 0.00 | 0.00 | 0.00 | 72 | 1016.3 |
| 20260830121514 | 25 | 148 | 11.3 | 12.9 | 0.00 | 0.00 | 0.00 | 72 | 1016.2 |
| 20260830120513 | 25 | 138 | 8.0 | 11.3 | 0.00 | 0.00 | 0.00 | 71 | 1016.0 |
| 20260830120013 | 25 | 139 | 9.7 | 11.3 | 0.00 | 0.00 | 0.00 | 71 | 1015.9 |
| 20260830115013 | 25 | 148 | 6.4 | 12.9 | 0.00 | 0.00 | 0.00 | 70 | 1015.8 |
| 20260830114513 | 25 | 132 | 9.7 | 12.9 | 0.00 | 0.00 | 0.00 | 69 | 1015.7 |
| 20260830113513 | 25 | 138 | 9.7 | 11.3 | 0.00 | 0.00 | 0.00 | 68 | 1015.6 |
| 20260830112513 | 25 | 136 | 11.3 | 12.9 | 0.00 | 0.00 | 0.00 | 67 | 1015.5 |
| 20260830112014 | 25 | 121 | 11.3 | 12.9 | 0.00 | 0.00 | 0.00 | 66 | 1015.4 |
| 20260830111013 | 26 | 129 | 8.0 | 9.7 | 0.00 | 0.00 | 0.00 | 65 | 1015.3 |
| 20260830110013 | 26 | 147 | 8.0 | 11.3 | 0.00 | 0.00 | 0.00 | 64 | 1015.3 |
| 20260830105513 | 26 | 147 | 8.0 | 11.3 | 0.00 | 0.00 | 0.00 | 65 | 1015.3 |
| 20260830104513 | 26 | 122 | 8.0 | 11.3 | 0.00 | 0.00 | 0.00 | 65 | 1015.3 |
| 20260830104013 | 26 | 113 | 8.0 | 11.3 | 0.00 | 0.00 | 0.00 | 64 | 1015.3 |
| 20260830103513 | 26 | 109 | 11.3 | 11.3 | 0.00 | 0.00 | 0.00 | 64 | 1015.3 |
| 20260830103013 | 26 | 102 | 8.0 | 8.0 | 0.00 | 0.00 | 0.00 | 63 | 1015.3 |
| 20260830102513 | 26 | 98 | 8.0 | 9.7 | 0.00 | 0.00 | 0.00 | 63 | 1015.3 |
| 20260830102013 | 26 | 108 | 6.4 | 9.7 | 0.00 | 0.00 | 0.00 | 63 | 1015.3 |
| 20260830101013 | 26 | 116 | 9.7 | 9.7 | 0.00 | 0.00 | 0.00 | 62 | 1015.2 |
| 20260830100512 | 26 | 113 | 8.0 | 9.7 | 0.00 | 0.00 | 0.00 | 62 | 1015.2 |
| 20260830100012 | 26 | 127 | 8.0 | 9.7 | 0.00 | 0.00 | 0.00 | 62 | 1015.2 |
| 20260830095512 | 26 | 117 | 8.0 | 9.7 | 0.00 | 0.00 | 0.00 | 61 | 1015.2 |
| 20260830095012 | 26 | 127 | 8.0 | 9.7 | 0.00 | 0.00 | 0.00 | 61 | 1015.2 |
| 20260830094513 | 26 | 122 | 8.0 | 11.3 | 0.00 | 0.00 | 0.00 | 61 | 1015.2 |
| 20260830093513 | 26 | 123 | 9.7 | 11.3 | 0.00 | 0.00 | 0.00 | 60 | 1015.3 |
| 20260830093012 | 26 | 135 | 8.0 | 11.3 | 0.00 | 0.00 | 0.00 | 60 | 1015.2 |
| 20260830092512 | 26 | 143 | 9.7 | 11.3 | 0.00 | 0.00 | 0.00 | 60 | 1015.2 |
| 20260830092012 | 26 | 148 | 9.7 | 11.3 | 0.00 | 0.00 | 0.00 | 60 | 1015.1 |
| 20260830091512 | 26 | 142 | 9.7 | 9.7 | 0.00 | 0.00 | 0.00 | 60 | 1015.1 |
| 20260830091012 | 26 | 111 | 9.7 | 11.3 | 0.00 | 0.00 | 0.00 | 60 | 1015.1 |
| 20260830090512 | 26 | 112 | 9.7 | 12.9 | 0.00 | 0.00 | 0.00 | 61 | 1015.1 |
| 20260830085512 | 26 | 110 | 9.7 | 11.3 | 0.00 | 0.00 | 0.00 | 60 | 1015.0 |
| 20260830085011 | 26 | 104 | 9.7 | 11.3 | 0.00 | 0.00 | 0.00 | 59 | 1015.0 |
| 20260830084511 | 26 | 106 | 11.3 | 11.3 | 0.00 | 0.00 | 0.00 | 58 | 1015.0 |
| 20260830083511 | 27 | 120 | 8.0 | 9.7 | 0.00 | 0.00 | 0.00 | 57 | 1014.9 |
| 20260830083011 | 27 | 119 | 8.0 | 9.7 | 0.00 | 0.00 | 0.00 | 58 | 1015.0 |
| 20260830082511 | 26 | 114 | 9.7 | 9.7 | 0.00 | 0.00 | 0.00 | 58 | 1015.0 |
| 20260830082011 | 26 | 104 | 8.0 | 9.7 | 0.00 | 0.00 | 0.00 | 58 | 1015.1 |
| 20260830081511 | 26 | 92 | 8.0 | 11.3 | 0.00 | 0.00 | 0.00 | 58 | 1015.1 |
| 20260830080511 | 26 | 64 | 9.7 | 11.3 | 0.00 | 0.00 | 0.00 | 59 | 1015.1 |
| 20260830080011 | 27 | 59 | 8.0 | 8.0 | 0.00 | 0.00 | 0.00 | 57 | 1015.1 |
| 20260830075511 | 27 | 76 | 6.4 | 6.4 | 0.00 | 0.00 | 0.00 | 55 | 1015.2 |
| 20260830074511 | 27 | 182 | 6.4 | 8.0 | 0.00 | 0.00 | 0.00 | 54 | 1015.1 |
| 20260830074011 | 27 | 194 | 4.8 | 8.0 | 0.00 | 0.00 | 0.00 | 54 | 1015.1 |
| 20260830073511 | 27 | 214 | 6.4 | 8.0 | 0.00 | 0.00 | 0.00 | 54 | 1015.0 |
| 20260830073011 | 27 | 202 | 6.4 | 8.0 | 0.00 | 0.00 | 0.00 | 54 | 1015.0 |
| 20260830072511 | 27 | 198 | 8.0 | 9.7 | 0.00 | 0.00 | 0.00 | 53 | 1015.1 |
| 20260830072011 | 28 | 207 | 9.7 | 9.7 | 0.00 | 0.00 | 0.00 | 53 | 1015.1 |
| 20260830071511 | 28 | 208 | 8.0 | 9.7 | 0.00 | 0.00 | 0.00 | 53 | 1015.1 |
| 20260830071011 | 27 | 201 | 8.0 | 8.0 | 0.00 | 0.00 | 0.00 | 53 | 1015.2 |
| 20260830070511 | 28 | 194 | 8.0 | 9.7 | 0.00 | 0.00 | 0.00 | 53 | 1015.2 |
| 20260830070011 | 28 | 183 | 8.0 | 9.7 | 0.00 | 0.00 | 0.00 | 53 | 1015.3 |
| 20260830065512 | 28 | 172 | 8.0 | 9.7 | 0.00 | 0.00 | 0.00 | 53 | 1015.3 |
| 20260830065011 | 28 | 174 | 8.0 | 11.3 | 0.00 | 0.00 | 0.00 | 52 | 1015.2 |
| 20260830064010 | 28 | 179 | 9.7 | 9.7 | 0.00 | 0.00 | 0.00 | 52 | 1015.2 |
| 20260830063510 | 28 | 169 | 8.0 | 11.3 | 0.00 | 0.00 | 0.00 | 51 | 1015.2 |
| 20260830063010 | 28 | 158 | 9.7 | 11.3 | 0.00 | 0.00 | 0.00 | 51 | 1015.2 |
| 20260830062510 | 28 | 159 | 9.7 | 11.3 | 0.00 | 0.00 | 0.00 | 50 | 1015.2 |
| 20260830062010 | 28 | 162 | 8.0 | 9.7 | 0.00 | 0.00 | 0.00 | 50 | 1015.2 |
| 20260830061510 | 28 | 159 | 9.7 | 9.7 | 0.00 | 0.00 | 0.00 | 50 | 1015.3 |
| 20260830061010 | 28 | 149 | 8.0 | 9.7 | 0.00 | 0.00 | 0.00 | 49 | 1015.3 |
| 20260830060010 | 29 | 155 | 8.0 | 9.7 | 0.00 | 0.00 | 0.00 | 49 | 1015.3 |
| 20260830055510 | 29 | 161 | 9.7 | 9.7 | 0.00 | 0.00 | 0.00 | 49 | 1015.3 |
| 20260830055010 | 29 | 176 | 9.7 | 9.7 | 0.00 | 0.00 | 0.00 | 49 | 1015.3 |
| 20260830054510 | 29 | 169 | 8.0 | 11.3 | 0.00 | 0.00 | 0.00 | 49 | 1015.3 |
| 20260830054010 | 29 | 168 | 8.0 | 11.3 | 0.00 | 0.00 | 0.00 | 48 | 1015.3 |
| 20260830053009 | 29 | 157 | 11.3 | 12.9 | 0.00 | 0.00 | 0.00 | 48 | 1015.2 |
| 20260830052509 | 30 | 153 | 11.3 | 12.9 | 0.00 | 0.00 | 0.00 | 47 | 1015.2 |
| 20260830052009 | 30 | 147 | 11.3 | 12.9 | 0.00 | 0.00 | 0.00 | 47 | 1015.2 |
| 20260830051509 | 30 | 153 | 11.3 | 12.9 | 0.00 | 0.00 | 0.00 | 47 | 1015.2 |
| 20260830051009 | 30 | 153 | 11.3 | 11.3 | 0.00 | 0.00 | 0.00 | 46 | 1015.2 |
| 20260830050509 | 30 | 165 | 9.7 | 12.9 | 0.00 | 0.00 | 0.00 | 46 | 1015.3 |
| 20260830050009 | 30 | 168 | 8.0 | 12.9 | 0.00 | 0.00 | 0.00 | 46 | 1015.3 |
| 20260830045509 | 30 | 165 | 11.3 | 11.3 | 0.00 | 0.00 | 0.00 | 46 | 1015.3 |
| 20260830045009 | 30 | 166 | 9.7 | 12.9 | 0.00 | 0.00 | 0.00 | 46 | 1015.3 |
| 20260830044509 | 30 | 167 | 9.7 | 12.9 | 0.00 | 0.00 | 0.00 | 45 | 1015.3 |
| 20260830044009 | 30 | 161 | 11.3 | 14.5 | 0.00 | 0.00 | 0.00 | 45 | 1015.2 |
| 20260830043509 | 30 | 160 | 11.3 | 14.5 | 0.00 | 0.00 | 0.00 | 45 | 1015.2 |
| 20260830043010 | 30 | 162 | 11.3 | 14.5 | 0.00 | 0.00 | 0.00 | 44 | 1015.2 |
| 20260830042511 | 30 | 160 | 14.5 | 14.5 | 0.00 | 0.00 | 0.00 | 44 | 1015.3 |
| 20260830042010 | 30 | 156 | 12.9 | 14.5 | 0.00 | 0.00 | 0.00 | 44 | 1015.2 |
| 20260830041009 | 30 | 154 | 12.9 | 14.5 | 0.00 | 0.00 | 0.00 | 43 | 1015.2 |
| 20260830040510 | 31 | 153 | 11.3 | 14.5 | 0.00 | 0.00 | 0.00 | 43 | 1015.2 |
| 20260830040009 | 31 | 154 | 12.9 | 14.5 | 0.00 | 0.00 | 0.00 | 43 | 1015.1 |
| 20260830035508 | 31 | 157 | 9.7 | 14.5 | 0.00 | 0.00 | 0.00 | 43 | 1015.1 |
| 20260830034508 | 30 | 151 | 11.3 | 12.9 | 0.00 | 0.00 | 0.00 | 43 | 1015.1 |
| 20260830034008 | 30 | 150 | 11.3 | 14.5 | 0.00 | 0.00 | 0.00 | 42 | 1015.0 |
| 20260830033508 | 31 | 149 | 9.7 | 14.5 | 0.00 | 0.00 | 0.00 | 42 | 1015.0 |
| 20260830033008 | 31 | 151 | 11.3 | 12.9 | 0.00 | 0.00 | 0.00 | 41 | 1015.0 |
| 20260830032508 | 31 | 159 | 12.9 | 12.9 | 0.00 | 0.00 | 0.00 | 41 | 1015.0 |
| 20260830032008 | 31 | 152 | 11.3 | 12.9 | 0.00 | 0.00 | 0.00 | 41 | 1014.9 |
| 20260830031508 | 31 | 148 | 9.7 | 14.5 | 0.00 | 0.00 | 0.00 | 40 | 1014.9 |
| 20260830031008 | 31 | 154 | 11.3 | 14.5 | 0.00 | 0.00 | 0.00 | 40 | 1014.9 |
| 20260830030508 | 31 | 162 | 12.9 | 14.5 | 0.00 | 0.00 | 0.00 | 40 | 1014.8 |
| 20260830030008 | 31 | 157 | 11.3 | 14.5 | 0.00 | 0.00 | 0.00 | 40 | 1014.8 |
| 20260830025508 | 31 | 159 | 11.3 | 14.5 | 0.00 | 0.00 | 0.00 | 40 | 1014.7 |
| 20260830025008 | 31 | 166 | 12.9 | 12.9 | 0.00 | 0.00 | 0.00 | 40 | 1014.7 |
| 20260830023508 | 31 | 138 | 9.7 | 11.3 | 0.00 | 0.00 | 0.00 | 40 | 1014.7 |
| 20260830023008 | 31 | 138 | 11.3 | 11.3 | 0.00 | 0.00 | 0.00 | 39 | 1014.6 |
| 20260830022508 | 31 | 138 | 9.7 | 11.3 | 0.00 | 0.00 | 0.00 | 39 | 1014.5 |
| 20260830022008 | 31 | 137 | 8.0 | 9.7 | 0.00 | 0.00 | 0.00 | 39 | 1014.4 |
| 20260830021508 | 31 | 134 | 8.0 | 11.3 | 0.00 | 0.00 | 0.00 | 39 | 1014.3 |
| 20260830021007 | 31 | 135 | 8.0 | 11.3 | 0.00 | 0.00 | 0.00 | 39 | 1014.3 |
| 20260830020507 | 32 | 129 | 11.3 | 11.3 | 0.00 | 0.00 | 0.00 | 38 | 1014.2 |